Regional Weather Roundup
Issued by NWS

Home | Current Version | Previous Version | Graphics & Text | Print | Product List | Glossary On
Versions: 1 2 3 4 5 6 7 8 9 10 11 12 13 14 15 16 17 18 19 20 21 22 23 24 25 26 27 28 29 30 31 32 33 34 35 36 37 38 39 40 41 42 43 44 45 46 47 48 49 50
000
ASUS45 KBOU 241310
RWRCO

WEATHER ROUNDUP FOR COLORADO
NATIONAL WEATHER SERVICE DENVER/BOULDER CO
700 AM MDT TUE APR 24 2018

NOTE: "FAIR" INDICATES FEW OR NO CLOUDS BELOW 12000 FEET WITH NO
SIGNIFICANT WEATHER AND/OR OBSTRUCTIONS TO VISIBILITY.

COZ001>005-013-030-031-241400-
...NORTHWEST COLORADO...

CITY           SKY/WX    TMP DP  RH WIND       PRES   REMARKS
CRAIG          CLOUDY    32  28  85 SW10      30.33R WCI  24
HAYDEN         CLOUDY    32  28  85 NW6       30.33R WCI  26
MEEKER         FAIR      34  28  79 N5        30.31R WCI  30
RANGELY        FAIR      37  26  64 E30G39    30.29R
RABBIT EARS PA FOG       27  27 100 CALM      30.31S VSB<1/4
STEAMBOAT SPGS CLOUDY    32  29  88 W3        30.31R
WALDEN         CLOUDY    30  23  74 NW8       30.33R WCI  23
$$

COZ006>008-011-241400-
...WEST CENTRAL VALLEYS...

CITY           SKY/WX    TMP DP  RH WIND       PRES   REMARKS
GRAND JUNCTION MOCLDY    53  31  42 E13       30.16R
MONTROSE       FAIR      47  34  60 N7        30.21R
EAGLE          FAIR      41  33  73 SE5       30.24R
RIFLE          FAIR      44  31  60 NW13      30.23R
DELTA          FAIR      50  36  58 NE5       30.19S
NUCLA          FAIR      48  32  53 E9        30.20R
$$

COZ017>023-064>068-241400-
...SOUTHWEST COLORADO...

CITY           SKY/WX    TMP DP  RH WIND       PRES   REMARKS
DURANGO        FAIR      35  14  42 E3        30.16R
CORTEZ         FAIR      38  22  52 CALM      30.15R
PAGOSA SPRINGS FAIR      36  15  42 CALM      30.22R
TELLURIDE      FAIR      36  28  71 SE7       30.31S
WOLF CREEK PAS FAIR      34  12  40 SW7       30.45R WCI  28
$$

COZ009-010-012-014-032>034-037-058>063-241400-
...CENTRAL COLORADO...

CITY           SKY/WX    TMP DP  RH WIND       PRES   REMARKS
ASPEN          FAIR      38  34  85 SW6       30.24S
BUENA VISTA    LGT RAIN  43  32  65 E5        30.28S
COPPER MTN     NOT AVBL
BERTHOUD PASS  FAIR      21  10  63 W8        30.36S WCI  12
COTTONWOOD PAS LGT SNOW  39  36  87 W12       30.33S VSB 1
GUNNISON       MOCLDY    41  33  73 CALM      30.28F
GRANBY         PTSUNNY   36  33  89 E3        30.26S
KREMMLING      MOCLDY    41  32  70 N13       30.27R
LEADVILLE      FOG       30  30 100 CALM      30.31R VSB<1/4
MONARCH PASS   FLURRIES  28  27  93 NW8       30.51R WCI  20
SALIDA         CLOUDY    45  32  60 CALM      30.37R
SUNLIGHT       FAIR      28  25  86 SW7       30.36R WCI  21
WILKERSON PASS CLOUDY   N/A N/A N/A SW9       30.39R
$$

COZ069>075-241400-
...SAN LUIS VALLEY/SANGRE DE CRISTO MOUNTAINS...

CITY           SKY/WX    TMP DP  RH WIND       PRES   REMARKS
ALAMOSA        FAIR      33  22  63 SW5       30.25R WCI  29
DEL NORTE      FAIR      31  17  56 W6        30.28R WCI  26
LA VETA PASS   SNOW      30  28  93 NE15G25   30.46R VSB 1/4 WCI  19
SAGUACHE       NOT AVBL
$$

COZ035-036-038>040-241400-
...NORTHERN COLORADO FRONT RANGE...

CITY           SKY/WX    TMP DP  RH WIND       PRES   REMARKS
DENVER INTL AP LGT SNOW  32  30  92 N12       30.40R FOG     WCI  23
AURORA         NOT AVBL
FRONT RANGE AP LGT SNOW  34  33  96 N10       30.40R WCI  26
ERIE MUNI ARPT LGT SNOW  34  33  96 E5        30.46R WCI  30
BOULDER MUN AP LGT RAIN  34  34 100 E6        30.40R WCI  29
CENTENNIAL     LGT SNOW  31  31 100 NE8       30.39R VSB 3/4 WCI  23
BROOMFIELD     LGT SNOW  32  32 100 E7        30.40R WCI  26
FORT COLLINS   LGT RAIN  36  32  85 N6        30.40R
LONGMONT       LGT SNOW  36  34  93 S3        30.42R
$$

COZ041-046-047-076>085-087-088-241400-
...PIKES PEAK/PALMER DIVIDE AND SOUTHERN FOOTHILLS...

CITY           SKY/WX    TMP DP  RH WIND       PRES   REMARKS
COLO. SPRINGS  FLURRIES  36  29  75 N24       30.33R
A. F. ACADEMY  NOT AVBL
SCHRIEVER AFB  NOT AVBL
CHEYENNE MTN   NOT AVBL
ELLICOTT       LGT SNOW N/A N/A N/A N28G36    30.32R
FALCON         CLOUDY    31  29  94 N14G20    30.35R WCI  20
FORT CARSON    LGT RAIN  38  30  74 N16G22    30.32R
LIMON          SNOW      32  31  96 N18G26    30.35R VSB 1/2 WCI  20
MONUMENT HILL  LGT SNOW  28  28 100 N7        30.39R WCI  21
CANON CITY     CLOUDY    45  36  70 SE12G25   30.30R
WALSENBURG     NOT AVBL
TRINIDAD       CLOUDY    38  36  92 N14       30.33R
$$

COZ042>045-048>051-090-091-241400-
...NORTHEAST COLORADO...

CITY           SKY/WX    TMP DP  RH WIND       PRES   REMARKS
GREELEY ARPT   CLOUDY    36  31  82 N13       30.41R
AKRON          LGT SNOW  32  32 100 N22       30.35R VSB 3/4 WCI  19
BURLINGTON     MIX PCPN  37  35  92 N18G32    30.32R
WRAY           LGT RAIN  37  36  93 N15G22    30.34R
YUMA           LGT RAIN  34  32  93 NW17G24   30.35R WCI  23
STERLING       NOT AVBL
HOLYOKE        CLOUDY    39  34  81 N26G33    30.33R
FORT MORGAN    CLOUDY    34  32  92 N18G28    30.38R WCI  23
$$

COZ086-089-092>099-241400-
...SOUTHEAST COLORADO...

CITY           SKY/WX    TMP DP  RH WIND       PRES   REMARKS
PUEBLO         CLOUDY    44  31  60 N26G39    30.30R
LA JUNTA       CLOUDY    44  33  65 N25G38    30.29R
LAMAR          CLOUDY    44  37  76 N24G32    30.24R
SPRINGFIELD      N/A     43  42  97 N6        30.19R
$$




USA.gov is the U.S. government's official web portal to all federal, state and local government web resources and services.